User: anonymous   Login
Location: Unspecified
(0.0000°N, 0.0000°E)
Time: 21:51:11
(UTC+00:00)
Language:

NOSS 3-1 (C) - Orbit

View from above orbital plane
View from above orbital plane
View from above satellite
View from above satellite

Ground track
Ground track

The orbit data is extracted from the following two-line orbital elements,

1 26907U 01040C   20037.13280007 0.00000000  00000-0  00000-0 0    05
2 26907  63.4148  83.1343 0456002   0.7510 359.2490 13.41303600    07
Epoch (UTC): 06 February 2020 03:11:13
Eccentricity: 0.0456002
inclination: 63.4148°
perigee height: 763 km
apogee height: 1445 km
right ascension of ascending node: 83.1343°
argument of perigee: 0.7510°
revolutions per day: 13.41303600
mean anomaly at epoch: 359.2490°
orbit number at epoch: 0

The dashed part of the orbit path shows where the satellite is in the earth's shadow,  

DLR